2020-080A (46904 NORAD) Tracking and Keplerian Element Data

This shows tracking and keplerian element data for the satellite.

Feedback or suggestion? Click here.




ElementValue
Catalog46904
Name2020-080A
Epoch Orbit286
Epoch Day331.20458429
Epoch Year2020
RAAN88.4655
Inclination97.4068
Eccentricity0.0012107
Argument of Perigee224.7618
Mean Anonmoly251.9896
Mean Motion15.24361898
Decay Rate2.375E-05
L11 46904U 20080A 20331.20458429 .00002375 00000-0 99810-4 0 9994
L22 46904 97.4068 88.4655 0012107 224.7618 251.9896 15.24361898 2869

Live tracking and technical data element details for 2020-080A (NORAD 46904). 2020-080A can be tracked NOW for your location showing map with azimuth and elevation plus other details from your city location.

Track the satellite on the map from your city or location and see movement details for azimuth, elevation, latitude, longitude, range, height, and movement on the map or in text.







IsCatalogInMostPopularTable: catalog: 46904, numindb: 5
Update: records affected: 1



GetName: 46904 2020-080A

Hit Count: updated at: Thu, 26 Nov 2020 18:34:05 GMT